Location: Hermaringen
(48.5952°N, 10.2585°E)
Time: 13:36:33
(UTC+00:00)

SR - Pass Details

Date: 16 February 2026
Orbit: 572 x 849 km, 66.7° (Epoch: 12 March)

Event Time Altitude Azimuth Distance (km) Brightness Sun altitude
Rises 11:33:11 0° 328° (NNW) 3,011 ? 29.2°
Reaches altitude 10° 11:35:37 10° 338° (NNW) 2,140 ? 29.2°
Maximum altitude 11:40:04 34° 44° (NE) 1,186 ? 29.2°
Drops below altitude 10° 11:44:50 10° 109° (ESE) 2,299 ? 29.1°
Sets 11:47:32 0° 118° (ESE) 3,267 ? 29.1°
